Flag for U.S.A. Weather past 2 weeks in Houston, Texas, U.S.A.

Now
81 °F

Clear.


Feels Like: 87 °F
Forecast: 80 / 99 °F
Wind: 7 mph from West

Location: Houston Hobby Airport

Current Time: Jul 30, 2015 at 5:57:40 AM

Latest Report: Jul 30, 2015 at 4:53 AM


Visibility: 10 mi

Pressure: 30.01 "Hg

Humidity: 85%

Dew point: 76 °F

Location of HoustonLocation

Historic Weather in Houston — Graph

°F

Houston temperature yesterday

Maximum temperature yesterday: 99 °F (at 2:53 PM)
Minimum temperature yesterday: 78 °F (at 5:53 AM)
Average temperature yesterday: 87 °F

Past Weeks' High & Low Weather Summary

 TemperatureHumidityPressure
High99 °F (Jul 29, 2:53 PM)100% (Jul 26, 3:53 AM)30.07 "Hg (Jul 26, 3:53 AM)
Low76 °F (Jul 15, 4:53 AM)34% (Jul 29, 3:53 PM)29.86 "Hg (Jul 21, 7:53 PM)
Average86 °F71%29.97 "Hg
* Reported Jul 15 4:53 AM — Jul 30 4:53 AM, Houston, Weather by CustomWeather, © 2015

Note: Actual official high and low records may vary slightly from our data, if they occured in-between our weather recording intervals... More about our weather records

Advertising

Houston weather history for previous 24 hours

 ConditionsComfort  
Time TempWeatherWind HumidityBarometerVisibility
4:53 AM
Thu, Jul 30
81 °FPassing clouds.7 mph85%30.01 "Hg10 mi
3:53 AM81 °FPassing clouds.6 mph85%30.02 "Hg10 mi
2:53 AM81 °FPassing clouds.5 mph85%30.02 "Hg10 mi
1:53 AM82 °FPassing clouds.5 mph82%30.03 "Hg10 mi
12:53 AM82 °FPassing clouds.5 mph82%30.04 "Hg10 mi
11:53 PM
Wed, Jul 29
83 °FPassing clouds.5 mph82%30.03 "Hg10 mi
10:53 PM83 °FPassing clouds.5 mph82%30.03 "Hg10 mi
9:53 PM85 °FPassing clouds.6 mph75%30.02 "Hg10 mi
8:53 PM87 °FScattered clouds.7 mph69%30.00 "Hg10 mi
7:53 PM89 °FScattered clouds.10 mph65%29.99 "Hg10 mi
6:53 PM92 °FScattered clouds.10 mph58%29.98 "Hg10 mi
5:53 PM94 °FPassing clouds.8 mph54%29.97 "Hg10 mi
4:53 PM94 °FPassing clouds.8 mph51%29.98 "Hg10 mi
3:53 PM98 °FPassing clouds.No wind34%29.99 "Hg10 mi
2:53 PM99 °FPassing clouds.8 mph35%30.01 "Hg10 mi
1:53 PM96 °FPassing clouds.5 mph38%30.03 "Hg10 mi
12:53 PM94 °FPassing clouds.7 mph46%30.05 "Hg10 mi
11:53 AM92 °FPassing clouds.No wind51%30.06 "Hg10 mi
10:53 AM88 °FScattered clouds.No wind65%30.06 "Hg10 mi
9:53 AM86 °FScattered clouds.3 mph72%30.06 "Hg10 mi
8:53 AM83 °FScattered clouds.3 mph82%30.06 "Hg10 mi
7:53 AM81 °FScattered clouds.No wind88%30.04 "Hg10 mi
6:53 AM78 °FPassing clouds.No wind93%30.03 "Hg10 mi
5:53 AM78 °FClear.No wind93%30.01 "Hg10 mi
Weather by CustomWeather, © 2015

See weather overviewHow to use our weather pages